| time (UTC) | temp F | wind direction | speed MPH | gust MPH | rain 1hr in | rain 24hr in | rain mn in | humidity % | barometer mb |
| 20260905104550 | 64 | 360 | 0.0 | 5.0 | 0.00 | 0.00 | 0.00 | 43 | 1025.0 |
| 20260905104049 | 64 | 0 | 0.0 | 4.0 | 0.00 | 0.00 | 0.00 | 43 | 1024.9 |
| 20260905103544 | 63 | 263 | 1.0 | 4.0 | 0.00 | 0.00 | 0.00 | 43 | 1024.8 |
| 20260905103102 | 63 | 0 | 0.0 | 4.0 | 0.00 | 0.00 | 0.00 | 43 | 1024.8 |
| 20260905102547 | 64 | 0 | 0.0 | 4.0 | 0.00 | 0.00 | 0.00 | 44 | 1024.8 |
| 20260905102044 | 64 | 0 | 0.0 | 6.0 | 0.00 | 0.00 | 0.00 | 44 | 1024.7 |
| 20260905101622 | 64 | 306 | 0.0 | 7.0 | 0.00 | 0.00 | 0.00 | 43 | 1024.7 |
| 20260905101050 | 64 | 0 | 1.0 | 7.0 | 0.00 | 0.00 | 0.00 | 43 | 1024.7 |
| 20260905100546 | 64 | 265 | 1.0 | 7.0 | 0.00 | 0.00 | 0.00 | 43 | 1024.6 |
| 20260905100059 | 64 | 0 | 0.0 | 8.0 | 0.00 | 0.00 | 0.00 | 43 | 1024.7 |
| 20260905095544 | 65 | 0 | 0.0 | 8.0 | 0.00 | 0.00 | 0.00 | 43 | 1024.6 |
| 20260905095045 | 64 | 0 | 0.0 | 6.0 | 0.00 | 0.00 | 0.00 | 43 | 1024.7 |
| 20260905094558 | 64 | 0 | 0.0 | 6.0 | 0.00 | 0.00 | 0.00 | 44 | 1024.7 |
| 20260905094047 | 64 | 0 | 0.0 | 3.0 | 0.00 | 0.00 | 0.00 | 44 | 1024.6 |
| 20260905093545 | 64 | 290 | 0.0 | 8.0 | 0.00 | 0.00 | 0.00 | 44 | 1024.6 |
| 20260905093050 | 64 | 0 | 0.0 | 8.0 | 0.00 | 0.00 | 0.00 | 44 | 1024.4 |
| 20260905092545 | 64 | 0 | 0.0 | 8.0 | 0.00 | 0.00 | 0.00 | 44 | 1024.5 |
| 20260905092044 | 64 | 0 | 0.0 | 7.0 | 0.00 | 0.00 | 0.00 | 44 | 1024.5 |
| 20260905091616 | 64 | 296 | 0.0 | 7.0 | 0.00 | 0.00 | 0.00 | 44 | 1024.5 |
| 20260905091048 | 64 | 294 | 0.0 | 8.0 | 0.00 | 0.00 | 0.00 | 44 | 1024.4 |
| 20260905090546 | 64 | 0 | 0.0 | 8.0 | 0.00 | 0.00 | 0.00 | 44 | 1024.4 |
| 20260905090056 | 64 | 0 | 0.0 | 8.0 | 0.00 | 0.00 | 0.00 | 45 | 1024.4 |
| 20260905085545 | 64 | 0 | 0.0 | 7.0 | 0.00 | 0.00 | 0.00 | 45 | 1024.4 |
| 20260905085045 | 64 | 279 | 0.0 | 3.0 | 0.00 | 0.00 | 0.00 | 45 | 1024.4 |
| 20260905084614 | 63 | 0 | 0.0 | 5.0 | 0.00 | 0.00 | 0.00 | 45 | 1024.4 |
| 20260905084045 | 63 | 0 | 0.0 | 5.0 | 0.00 | 0.00 | 0.00 | 45 | 1024.4 |
| 20260905083546 | 63 | 0 | 0.0 | 3.0 | 0.00 | 0.00 | 0.00 | 45 | 1024.4 |
| 20260905083050 | 63 | 0 | 0.0 | 5.0 | 0.00 | 0.00 | 0.00 | 45 | 1024.3 |
| 20260905082546 | 63 | 0 | 0.0 | 5.0 | 0.00 | 0.00 | 0.00 | 45 | 1024.3 |
| 20260905082046 | 63 | 0 | 0.0 | 5.0 | 0.00 | 0.00 | 0.00 | 45 | 1024.4 |
| 20260905081559 | 63 | 0 | 0.0 | 3.0 | 0.00 | 0.00 | 0.00 | 45 | 1024.4 |
| 20260905081044 | 63 | 301 | 0.0 | 4.0 | 0.00 | 0.00 | 0.00 | 46 | 1024.3 |
| 20260905080545 | 63 | 0 | 0.0 | 7.0 | 0.00 | 0.00 | 0.00 | 46 | 1024.4 |
| 20260905080056 | 63 | 310 | 0.0 | 7.0 | 0.00 | 0.00 | 0.00 | 46 | 1024.4 |
| 20260905075547 | 63 | 0 | 0.0 | 8.0 | 0.00 | 0.00 | 0.00 | 46 | 1024.5 |
| 20260905075046 | 63 | 0 | 0.0 | 8.0 | 0.00 | 0.00 | 0.00 | 45 | 1024.4 |
| 20260905074555 | 63 | 0 | 0.0 | 2.0 | 0.00 | 0.00 | 0.00 | 45 | 1024.4 |
| 20260905074046 | 63 | 0 | 0.0 | 2.0 | 0.00 | 0.00 | 0.00 | 45 | 1024.4 |
| 20260905073550 | 63 | 0 | 0.0 | 5.0 | 0.00 | 0.00 | 0.00 | 45 | 1024.5 |
| 20260905073100 | 63 | 0 | 0.0 | 6.0 | 0.00 | 0.00 | 0.00 | 45 | 1024.4 |
| 20260905072549 | 63 | 0 | 0.0 | 6.0 | 0.00 | 0.00 | 0.00 | 45 | 1024.4 |
| 20260905072049 | 63 | 0 | 0.0 | 2.0 | 0.00 | 0.00 | 0.00 | 45 | 1024.4 |
| 20260905071601 | 63 | 0 | 0.0 | 2.0 | 0.00 | 0.00 | 0.00 | 44 | 1024.4 |
| 20260905071046 | 64 | 274 | 0.0 | 2.0 | 0.00 | 0.00 | 0.00 | 44 | 1024.4 |
| 20260905070545 | 64 | 0 | 0.0 | 2.0 | 0.00 | 0.00 | 0.00 | 44 | 1024.5 |
| 20260905070106 | 64 | 0 | 0.0 | 3.0 | 0.00 | 0.00 | 0.00 | 44 | 1024.4 |
| 20260905065547 | 64 | 0 | 0.0 | 3.0 | 0.00 | 0.00 | 0.00 | 44 | 1024.4 |
| 20260905065045 | 64 | 0 | 0.0 | 3.0 | 0.00 | 0.00 | 0.00 | 44 | 1024.5 |
| 20260905064550 | 64 | 252 | 0.0 | 6.0 | 0.00 | 0.00 | 0.00 | 44 | 1024.4 |
| 20260905064049 | 64 | 0 | 0.0 | 6.0 | 0.00 | 0.00 | 0.00 | 44 | 1024.4 |
| 20260905063545 | 64 | 0 | 0.0 | 4.0 | 0.00 | 0.00 | 0.00 | 44 | 1024.4 |
| 20260905063059 | 64 | 0 | 0.0 | 7.0 | 0.00 | 0.00 | 0.00 | 43 | 1024.4 |
| 20260905062545 | 64 | 0 | 0.0 | 7.0 | 0.00 | 0.00 | 0.00 | 43 | 1024.4 |
| 20260905062046 | 64 | 0 | 1.0 | 7.0 | 0.00 | 0.00 | 0.00 | 44 | 1024.4 |
| 20260905061607 | 64 | 0 | 0.0 | 6.0 | 0.00 | 0.00 | 0.00 | 44 | 1024.4 |
| 20260905061049 | 64 | 0 | 0.0 | 7.0 | 0.00 | 0.00 | 0.00 | 44 | 1024.5 |
| 20260905060545 | 64 | 242 | 0.0 | 7.0 | 0.00 | 0.00 | 0.00 | 44 | 1024.4 |
| 20260905060057 | 64 | 0 | 1.0 | 7.0 | 0.00 | 0.00 | 0.00 | 45 | 1024.5 |
| 20260905055543 | 63 | 0 | 0.0 | 6.0 | 0.00 | 0.00 | 0.00 | 44 | 1024.3 |
| 20260905055046 | 63 | 0 | 0.0 | 6.0 | 0.00 | 0.00 | 0.00 | 45 | 1024.3 |
| 20260905054553 | 63 | 38 | 0.0 | 0.0 | 0.00 | 0.00 | 0.00 | 44 | 1024.4 |
| 20260905054045 | 63 | 0 | 0.0 | 0.0 | 0.00 | 0.00 | 0.00 | 43 | 1024.4 |
| 20260905053547 | 63 | 0 | 0.0 | 1.0 | 0.00 | 0.00 | 0.00 | 43 | 1024.4 |
| 20260905053111 | 63 | 0 | 0.0 | 1.0 | 0.00 | 0.00 | 0.00 | 43 | 1024.3 |
| 20260905052549 | 63 | 0 | 0.0 | 0.0 | 0.00 | 0.00 | 0.00 | 44 | 1024.3 |
| 20260905052052 | 63 | 0 | 0.0 | 0.0 | 0.00 | 0.00 | 0.00 | 44 | 1024.4 |
| 20260905051558 | 63 | 0 | 0.0 | 0.0 | 0.00 | 0.00 | 0.00 | 43 | 1024.3 |
| 20260905051045 | 63 | 0 | 0.0 | 0.0 | 0.00 | 0.00 | 0.00 | 43 | 1024.3 |
| 20260905050550 | 63 | 0 | 0.0 | 0.0 | 0.00 | 0.00 | 0.00 | 43 | 1024.4 |
| 20260905050059 | 63 | 0 | 0.0 | 0.0 | 0.00 | 0.00 | 0.00 | 44 | 1024.4 |
| 20260905045547 | 63 | 0 | 0.0 | 0.0 | 0.00 | 0.00 | 0.00 | 44 | 1024.4 |
| 20260905045046 | 63 | 0 | 0.0 | 0.0 | 0.00 | 0.00 | 0.00 | 44 | 1024.4 |
| 20260905044555 | 63 | 0 | 0.0 | 0.0 | 0.00 | 0.00 | 0.00 | 44 | 1024.4 |
| 20260905044049 | 64 | 0 | 0.0 | 0.0 | 0.00 | 0.00 | 0.00 | 43 | 1024.4 |
| 20260905043547 | 64 | 0 | 0.0 | 0.0 | 0.00 | 0.00 | 0.00 | 43 | 1024.5 |
| 20260905043100 | 64 | 0 | 0.0 | 0.0 | 0.00 | 0.00 | 0.00 | 43 | 1024.6 |
| 20260905042549 | 64 | 0 | 0.0 | 0.0 | 0.00 | 0.00 | 0.00 | 43 | 1024.5 |
| 20260905042046 | 64 | 0 | 0.0 | 0.0 | 0.00 | 0.00 | 0.00 | 42 | 1024.6 |
| 20260905041558 | 65 | 0 | 0.0 | 0.0 | 0.00 | 0.00 | 0.00 | 42 | 1024.7 |
| 20260905041045 | 65 | 0 | 0.0 | 0.0 | 0.00 | 0.00 | 0.00 | 41 | 1024.7 |
| 20260905040547 | 66 | 0 | 0.0 | 0.0 | 0.00 | 0.00 | 0.00 | 41 | 1024.7 |
| 20260905040055 | 66 | 0 | 0.0 | 0.0 | 0.00 | 0.00 | 0.00 | 41 | 1024.7 |
| 20260905035546 | 66 | 0 | 0.0 | 0.0 | 0.00 | 0.00 | 0.00 | 41 | 1024.8 |
| 20260905035046 | 66 | 0 | 0.0 | 0.0 | 0.00 | 0.00 | 0.00 | 41 | 1024.8 |
| 20260905034602 | 66 | 0 | 0.0 | 0.0 | 0.00 | 0.00 | 0.00 | 41 | 1024.9 |
| 20260905034046 | 66 | 0 | 0.0 | 0.0 | 0.00 | 0.00 | 0.00 | 40 | 1024.9 |
| 20260905033546 | 67 | 0 | 0.0 | 0.0 | 0.00 | 0.00 | 0.00 | 40 | 1024.8 |
| 20260905033101 | 67 | 0 | 0.0 | 0.0 | 0.00 | 0.00 | 0.00 | 40 | 1024.8 |
| 20260905032547 | 67 | 0 | 0.0 | 0.0 | 0.00 | 0.00 | 0.00 | 40 | 1024.8 |
| 20260905032049 | 67 | 0 | 0.0 | 0.0 | 0.00 | 0.00 | 0.00 | 40 | 1024.8 |
| 20260905031600 | 67 | 0 | 0.0 | 0.0 | 0.00 | 0.00 | 0.00 | 39 | 1024.7 |
| 20260905031047 | 68 | 0 | 0.0 | 0.0 | 0.00 | 0.00 | 0.00 | 39 | 1024.7 |
| 20260905030546 | 68 | 0 | 0.0 | 0.0 | 0.00 | 0.00 | 0.00 | 39 | 1024.7 |
| 20260905030100 | 68 | 0 | 0.0 | 0.0 | 0.00 | 0.00 | 0.00 | 39 | 1024.7 |
| 20260905025545 | 68 | 0 | 0.0 | 0.0 | 0.00 | 0.00 | 0.00 | 39 | 1024.7 |
| 20260905025047 | 69 | 0 | 0.0 | 0.0 | 0.00 | 0.00 | 0.00 | 38 | 1024.6 |
| 20260905024626 | 69 | 0 | 0.0 | 0.0 | 0.00 | 0.00 | 0.00 | 38 | 1024.6 |
| 20260905024052 | 69 | 0 | 0.0 | 0.0 | 0.00 | 0.00 | 0.00 | 38 | 1024.5 |
| 20260905023550 | 69 | 0 | 0.0 | 0.0 | 0.00 | 0.00 | 0.00 | 38 | 1024.5 |
| 20260905023105 | 69 | 0 | 0.0 | 0.0 | 0.00 | 0.00 | 0.00 | 38 | 1024.5 |
| 20260905022545 | 69 | 0 | 0.0 | 0.0 | 0.00 | 0.00 | 0.00 | 38 | 1024.4 |
| 20260905022045 | 68 | 0 | 0.0 | 0.0 | 0.00 | 0.00 | 0.00 | 38 | 1024.4 |
| 20260905021557 | 68 | 0 | 0.0 | 0.0 | 0.00 | 0.00 | 0.00 | 38 | 1024.3 |
| 20260905021046 | 68 | 0 | 0.0 | 0.0 | 0.00 | 0.00 | 0.00 | 38 | 1024.3 |
| 20260905020547 | 69 | 0 | 0.0 | 0.0 | 0.00 | 0.00 | 0.00 | 37 | 1024.3 |
| 20260905020056 | 69 | 0 | 0.0 | 0.0 | 0.00 | 0.00 | 0.00 | 37 | 1024.2 |
| 20260905015546 | 69 | 0 | 0.0 | 0.0 | 0.00 | 0.00 | 0.00 | 36 | 1024.2 |
| 20260905015045 | 70 | 0 | 0.0 | 0.0 | 0.00 | 0.00 | 0.00 | 36 | 1024.2 |
| 20260905014556 | 70 | 0 | 0.0 | 0.0 | 0.00 | 0.00 | 0.00 | 35 | 1024.2 |
| 20260905014049 | 71 | 0 | 0.0 | 0.0 | 0.00 | 0.00 | 0.00 | 34 | 1024.1 |
| 20260905013546 | 71 | 0 | 0.0 | 0.0 | 0.00 | 0.00 | 0.00 | 34 | 1024.0 |
| 20260905013059 | 72 | 0 | 0.0 | 0.0 | 0.00 | 0.00 | 0.00 | 33 | 1024.0 |
| 20260905012546 | 73 | 0 | 0.0 | 0.0 | 0.00 | 0.00 | 0.00 | 32 | 1023.9 |
| 20260905012047 | 74 | 0 | 0.0 | 0.0 | 0.00 | 0.00 | 0.00 | 31 | 1023.9 |
| 20260905011601 | 74 | 0 | 0.0 | 0.0 | 0.00 | 0.00 | 0.00 | 31 | 1023.9 |
| 20260905011048 | 75 | 0 | 0.0 | 2.0 | 0.00 | 0.00 | 0.00 | 30 | 1023.9 |
| 20260905010547 | 76 | 0 | 0.0 | 2.0 | 0.00 | 0.00 | 0.00 | 30 | 1024.0 |
| 20260905010100 | 76 | 0 | 0.0 | 3.0 | 0.00 | 0.00 | 0.00 | 29 | 1023.9 |
| 20260905005545 | 76 | 0 | 0.0 | 8.0 | 0.00 | 0.00 | 0.00 | 29 | 1023.8 |
| 20260905005047 | 77 | 0 | 0.0 | 8.0 | 0.00 | 0.00 | 0.00 | 28 | 1023.9 |
| 20260905004606 | 77 | 0 | 0.0 | 8.0 | 0.00 | 0.00 | 0.00 | 28 | 1023.8 |
| 20260905004047 | 77 | 0 | 0.0 | 3.0 | 0.00 | 0.00 | 0.00 | 27 | 1023.8 |
| 20260905003549 | 78 | 0 | 0.0 | 3.0 | 0.00 | 0.00 | 0.00 | 26 | 1023.8 |
| 20260905003100 | 78 | 0 | 0.0 | 1.0 | 0.00 | 0.00 | 0.00 | 26 | 1023.8 |
| 20260905002546 | 78 | 0 | 0.0 | 1.0 | 0.00 | 0.00 | 0.00 | 26 | 1023.7 |
| 20260905002050 | 78 | 0 | 0.0 | 0.0 | 0.00 | 0.00 | 0.00 | 25 | 1023.7 |
| 20260905001600 | 78 | 0 | 0.0 | 0.0 | 0.00 | 0.00 | 0.00 | 23 | 1023.7 |
| 20260905001049 | 78 | 0 | 0.0 | 0.0 | 0.00 | 0.00 | 0.00 | 23 | 1023.6 |
| 20260905000546 | 78 | 0 | 0.0 | 2.0 | 0.00 | 0.00 | 0.00 | 23 | 1023.6 |
| 20260905000058 | 79 | 0 | 0.0 | 2.0 | 0.00 | 0.00 | 0.00 | 23 | 1023.5 |
| 20260904235546 | 79 | 0 | 0.0 | 2.0 | 0.00 | 0.00 | 0.00 | 22 | 1023.5 |
| 20260904235047 | 79 | 0 | 0.0 | 0.0 | 0.00 | 0.00 | 0.00 | 22 | 1023.5 |
| 20260904234556 | 79 | 0 | 0.0 | 0.0 | 0.00 | 0.00 | 0.00 | 22 | 1023.5 |
| 20260904234045 | 79 | 0 | 0.0 | 2.0 | 0.00 | 0.00 | 0.00 | 22 | 1023.5 |
| 20260904233547 | 80 | 0 | 0.0 | 5.0 | 0.00 | 0.00 | 0.00 | 22 | 1023.5 |
| 20260904233104 | 80 | 0 | 0.0 | 9.0 | 0.00 | 0.00 | 0.00 | 22 | 1023.5 |
| 20260904232547 | 80 | 0 | 1.0 | 9.0 | 0.00 | 0.00 | 0.00 | 21 | 1023.4 |
| 20260904232044 | 80 | 39 | 1.0 | 10.0 | 0.00 | 0.00 | 0.00 | 22 | 1023.4 |
| 20260904231557 | 80 | 0 | 1.0 | 10.0 | 0.00 | 0.00 | 0.00 | 22 | 1023.4 |
| 20260904231050 | 80 | 0 | 0.0 | 7.0 | 0.00 | 0.00 | 0.00 | 22 | 1023.3 |
| 20260904230547 | 80 | 0 | 0.0 | 4.0 | 0.00 | 0.00 | 0.00 | 22 | 1023.3 |
| 20260904230058 | 80 | 0 | 0.0 | 4.0 | 0.00 | 0.00 | 0.00 | 21 | 1023.3 |
| 20260904225546 | 80 | 0 | 0.0 | 0.0 | 0.00 | 0.00 | 0.00 | 21 | 1023.2 |
| 20260904225046 | 80 | 0 | 0.0 | 0.0 | 0.00 | 0.00 | 0.00 | 21 | 1023.2 |
| 20260904224558 | 80 | 0 | 0.0 | 4.0 | 0.00 | 0.00 | 0.00 | 22 | 1023.2 |
| 20260904224048 | 80 | 0 | 0.0 | 4.0 | 0.00 | 0.00 | 0.00 | 21 | 1023.3 |
| 20260904223547 | 81 | 0 | 0.0 | 4.0 | 0.00 | 0.00 | 0.00 | 21 | 1023.2 |
| 20260904223109 | 81 | 0 | 0.0 | 3.0 | 0.00 | 0.00 | 0.00 | 21 | 1023.3 |
| 20260904222552 | 82 | 0 | 0.0 | 10.0 | 0.00 | 0.00 | 0.00 | 20 | 1023.2 |
| 20260904222046 | 82 | 0 | 0.0 | 11.0 | 0.00 | 0.00 | 0.00 | 20 | 1023.2 |
| 20260904221605 | 82 | 0 | 4.0 | 11.0 | 0.00 | 0.00 | 0.00 | 20 | 1023.1 |
| 20260904221047 | 82 | 63 | 1.0 | 10.0 | 0.00 | 0.00 | 0.00 | 21 | 1023.2 |
| 20260904220548 | 82 | 0 | 0.0 | 9.0 | 0.00 | 0.00 | 0.00 | 20 | 1023.2 |
| 20260904215548 | 82 | 0 | 1.0 | 9.0 | 0.00 | 0.00 | 0.00 | 20 | 1023.2 |
| 20260904215044 | 82 | 0 | 0.0 | 6.0 | 0.00 | 0.00 | 0.00 | 20 | 1023.2 |
| 20260904214609 | 82 | 77 | 1.0 | 6.0 | 0.00 | 0.00 | 0.00 | 20 | 1023.2 |
| 20260904214048 | 82 | 0 | 0.0 | 10.0 | 0.00 | 0.00 | 0.00 | 20 | 1023.2 |
| 20260904213547 | 82 | 0 | 0.0 | 11.0 | 0.00 | 0.00 | 0.00 | 20 | 1023.2 |
| 20260904213101 | 82 | 0 | 2.0 | 11.0 | 0.00 | 0.00 | 0.00 | 20 | 1023.2 |
| 20260904212545 | 82 | 76 | 1.0 | 10.0 | 0.00 | 0.00 | 0.00 | 20 | 1023.2 |
| 20260904212044 | 82 | 71 | 2.0 | 10.0 | 0.00 | 0.00 | 0.00 | 20 | 1023.3 |
| 20260904211605 | 82 | 0 | 3.0 | 10.0 | 0.00 | 0.00 | 0.00 | 20 | 1023.2 |
| 20260904211046 | 82 | 0 | 2.0 | 9.0 | 0.00 | 0.00 | 0.00 | 20 | 1023.2 |
| 20260904210545 | 82 | 0 | 1.0 | 10.0 | 0.00 | 0.00 | 0.00 | 20 | 1023.4 |
| 20260904210056 | 82 | 84 | 1.0 | 10.0 | 0.00 | 0.00 | 0.00 | 20 | 1023.3 |
| 20260904205547 | 82 | 59 | 3.0 | 9.0 | 0.00 | 0.00 | 0.00 | 20 | 1023.4 |
| 20260904205046 | 82 | 57 | 0.0 | 5.0 | 0.00 | 0.00 | 0.00 | 20 | 1023.5 |
| 20260904204558 | 82 | 87 | 1.0 | 10.0 | 0.00 | 0.00 | 0.00 | 20 | 1023.4 |
| 20260904204048 | 82 | 0 | 0.0 | 10.0 | 0.00 | 0.00 | 0.00 | 20 | 1023.5 |
| 20260904203547 | 81 | 38 | 3.0 | 10.0 | 0.00 | 0.00 | 0.00 | 20 | 1023.5 |
| 20260904203102 | 81 | 202 | 0.0 | 5.0 | 0.00 | 0.00 | 0.00 | 21 | 1023.7 |
| 20260904202545 | 80 | 52 | 0.0 | 6.0 | 0.00 | 0.00 | 0.00 | 21 | 1023.7 |
| 20260904202045 | 80 | 0 | 0.0 | 6.0 | 0.00 | 0.00 | 0.00 | 22 | 1023.8 |
| 20260904201604 | 80 | 0 | 1.0 | 5.0 | 0.00 | 0.00 | 0.00 | 22 | 1023.9 |
| 20260904201046 | 80 | 0 | 0.0 | 4.0 | 0.00 | 0.00 | 0.00 | 22 | 1023.8 |
| 20260904200546 | 80 | 80 | 0.0 | 4.0 | 0.00 | 0.00 | 0.00 | 21 | 1023.9 |
| 20260904200100 | 80 | 0 | 0.0 | 4.0 | 0.00 | 0.00 | 0.00 | 21 | 1023.9 |
| 20260904195545 | 81 | 0 | 0.0 | 5.0 | 0.00 | 0.00 | 0.00 | 21 | 1023.9 |
| 20260904195047 | 81 | 0 | 1.0 | 10.0 | 0.00 | 0.00 | 0.00 | 21 | 1023.9 |
| 20260904194559 | 81 | 132 | 1.0 | 10.0 | 0.00 | 0.00 | 0.00 | 21 | 1024.0 |
| 20260904194047 | 81 | 72 | 1.0 | 10.0 | 0.00 | 0.00 | 0.00 | 21 | 1024.0 |
| 20260904193547 | 81 | 78 | 1.0 | 5.0 | 0.00 | 0.00 | 0.00 | 21 | 1024.1 |
| 20260904193101 | 80 | 0 | 0.0 | 5.0 | 0.00 | 0.00 | 0.00 | 21 | 1024.0 |
| 20260904192544 | 80 | 110 | 1.0 | 7.0 | 0.00 | 0.00 | 0.00 | 21 | 1024.0 |
| 20260904192140 | 81 | 137 | 2.0 | 9.0 | 0.00 | 0.00 | 0.00 | 22 | 1024.1 |
| 20260904191600 | 81 | 86 | 3.0 | 9.0 | 0.00 | 0.00 | 0.00 | 22 | 1024.0 |
| 20260904191042 | 80 | 68 | 3.0 | 9.0 | 0.00 | 0.00 | 0.00 | 22 | 1024.1 |
| 20260904190545 | 80 | 164 | 1.0 | 15.0 | 0.00 | 0.00 | 0.00 | 22 | 1024.1 |
| 20260904190108 | 80 | 0 | 2.0 | 15.0 | 0.00 | 0.00 | 0.00 | 22 | 1024.2 |
| 20260904185543 | 81 | 67 | 0.0 | 6.0 | 0.00 | 0.00 | 0.00 | 22 | 1024.2 |
| 20260904185044 | 81 | 49 | 1.0 | 12.0 | 0.00 | 0.00 | 0.00 | 22 | 1024.2 |
| 20260904184607 | 81 | 107 | 3.0 | 12.0 | 0.00 | 0.00 | 0.00 | 22 | 1024.2 |
| 20260904184043 | 80 | 139 | 1.0 | 11.0 | 0.00 | 0.00 | 0.00 | 24 | 1024.2 |
| 20260904183545 | 79 | 46 | 2.0 | 11.0 | 0.00 | 0.00 | 0.00 | 24 | 1024.2 |
| 20260904183101 | 79 | 0 | 0.0 | 6.0 | 0.00 | 0.00 | 0.00 | 24 | 1024.3 |
| 20260904182546 | 79 | 63 | 1.0 | 19.0 | 0.00 | 0.00 | 0.00 | 24 | 1024.4 |
| 20260904182042 | 80 | 60 | 4.0 | 19.0 | 0.00 | 0.00 | 0.00 | 24 | 1024.4 |
| 20260904181557 | 80 | 0 | 0.0 | 6.0 | 0.00 | 0.00 | 0.00 | 21 | 1024.4 |
| 20260904181043 | 81 | 0 | 0.0 | 9.0 | 0.00 | 0.00 | 0.00 | 21 | 1024.5 |
| 20260904180544 | 81 | 200 | 0.0 | 9.0 | 0.00 | 0.00 | 0.00 | 21 | 1024.4 |
| 20260904180112 | 80 | 232 | 2.0 | 9.0 | 0.00 | 0.00 | 0.00 | 22 | 1024.4 |
| 20260904175544 | 80 | 342 | 0.0 | 8.0 | 0.00 | 0.00 | 0.00 | 22 | 1024.5 |
| 20260904175043 | 80 | 351 | 3.0 | 8.0 | 0.00 | 0.00 | 0.00 | 22 | 1024.5 |
| 20260904174558 | 79 | 360 | 1.0 | 7.0 | 0.00 | 0.00 | 0.00 | 23 | 1024.6 |
| 20260904174042 | 79 | 0 | 0.0 | 7.0 | 0.00 | 0.00 | 0.00 | 22 | 1024.7 |
| 20260904173543 | 79 | 0 | 0.0 | 5.0 | 0.00 | 0.00 | 0.00 | 22 | 1024.7 |
| 20260904173105 | 79 | 0 | 1.0 | 8.0 | 0.00 | 0.00 | 0.00 | 22 | 1024.7 |
| 20260904172544 | 79 | 0 | 0.0 | 13.0 | 0.00 | 0.00 | 0.00 | 22 | 1024.7 |
| 20260904172043 | 79 | 294 | 2.0 | 13.0 | 0.00 | 0.00 | 0.00 | 23 | 1024.7 |
| 20260904171605 | 78 | 206 | 0.0 | 7.0 | 0.00 | 0.00 | 0.00 | 24 | 1024.7 |
| 20260904171043 | 78 | 0 | 0.0 | 7.0 | 0.00 | 0.00 | 0.00 | 23 | 1024.7 |
| 20260904170545 | 78 | 0 | 0.0 | 7.0 | 0.00 | 0.00 | 0.00 | 23 | 1024.9 |
| 20260904170110 | 78 | 0 | 1.0 | 7.0 | 0.00 | 0.00 | 0.00 | 23 | 1024.9 |
| 20260904165543 | 78 | 250 | 1.0 | 7.0 | 0.00 | 0.00 | 0.00 | 23 | 1024.9 |
| 20260904165046 | 77 | 0 | 1.0 | 7.0 | 0.00 | 0.00 | 0.00 | 23 | 1024.8 |
| 20260904164606 | 78 | 223 | 2.0 | 7.0 | 0.00 | 0.00 | 0.00 | 23 | 1024.9 |
| 20260904164047 | 77 | 242 | 0.0 | 8.0 | 0.00 | 0.00 | 0.00 | 24 | 1024.7 |
| 20260904163545 | 77 | 231 | 1.0 | 10.0 | 0.00 | 0.00 | 0.00 | 25 | 1024.7 |
| 20260904163109 | 77 | 0 | 1.0 | 10.0 | 0.00 | 0.00 | 0.00 | 25 | 1024.7 |
| 20260904162545 | 77 | 0 | 1.0 | 8.0 | 0.00 | 0.00 | 0.00 | 25 | 1024.6 |
| 20260904162044 | 76 | 286 | 1.0 | 8.0 | 0.00 | 0.00 | 0.00 | 26 | 1024.7 |
| 20260904161602 | 76 | 0 | 1.0 | 9.0 | 0.00 | 0.00 | 0.00 | 25 | 1024.8 |
| 20260904161044 | 76 | 276 | 1.0 | 9.0 | 0.00 | 0.00 | 0.00 | 25 | 1024.7 |
| 20260904160544 | 76 | 0 | 1.0 | 8.0 | 0.00 | 0.00 | 0.00 | 26 | 1024.6 |
| 20260904160106 | 75 | 0 | 2.0 | 8.0 | 0.00 | 0.00 | 0.00 | 27 | 1024.6 |
| 20260904155547 | 75 | 234 | 0.0 | 10.0 | 0.00 | 0.00 | 0.00 | 27 | 1024.7 |
| 20260904155045 | 75 | 0 | 1.0 | 10.0 | 0.00 | 0.00 | 0.00 | 27 | 1024.7 |
| 20260904154607 | 75 | 0 | 1.0 | 10.0 | 0.00 | 0.00 | 0.00 | 27 | 1024.5 |
| 20260904154045 | 75 | 0 | 2.0 | 8.0 | 0.00 | 0.00 | 0.00 | 27 | 1024.5 |
| 20260904153545 | 74 | 281 | 1.0 | 8.0 | 0.00 | 0.00 | 0.00 | 28 | 1024.4 |
| 20260904153106 | 74 | 218 | 1.0 | 9.0 | 0.00 | 0.00 | 0.00 | 28 | 1024.4 |
| 20260904152544 | 74 | 0 | 1.0 | 9.0 | 0.00 | 0.00 | 0.00 | 29 | 1024.4 |
| 20260904152048 | 73 | 0 | 1.0 | 9.0 | 0.00 | 0.00 | 0.00 | 29 | 1024.3 |
| 20260904151557 | 73 | 0 | 1.0 | 8.0 | 0.00 | 0.00 | 0.00 | 30 | 1024.3 |
| 20260904151044 | 73 | 215 | 0.0 | 8.0 | 0.00 | 0.00 | 0.00 | 30 | 1024.4 |
| 20260904150548 | 72 | 0 | 1.0 | 8.0 | 0.00 | 0.00 | 0.00 | 30 | 1024.3 |
| 20260904150105 | 72 | 0 | 0.0 | 4.0 | 0.00 | 0.00 | 0.00 | 30 | 1024.3 |
| 20260904145545 | 72 | 275 | 0.0 | 4.0 | 0.00 | 0.00 | 0.00 | 30 | 1024.3 |
| 20260904145044 | 71 | 0 | 0.0 | 5.0 | 0.00 | 0.00 | 0.00 | 31 | 1024.3 |
| 20260904144603 | 71 | 0 | 0.0 | 5.0 | 0.00 | 0.00 | 0.00 | 31 | 1024.2 |
| 20260904144044 | 70 | 0 | 0.0 | 9.0 | 0.00 | 0.00 | 0.00 | 31 | 1024.2 |
| 20260904143545 | 70 | 0 | 1.0 | 9.0 | 0.00 | 0.00 | 0.00 | 31 | 1024.2 |
| 20260904143100 | 70 | 0 | 1.0 | 8.0 | 0.00 | 0.00 | 0.00 | 31 | 1024.3 |
| 20260904142545 | 69 | 0 | 0.0 | 7.0 | 0.00 | 0.00 | 0.00 | 32 | 1024.2 |
| 20260904142047 | 69 | 294 | 1.0 | 6.0 | 0.00 | 0.00 | 0.00 | 32 | 1024.2 |
| 20260904141614 | 68 | 257 | 0.0 | 6.0 | 0.00 | 0.00 | 0.00 | 32 | 1024.1 |
| 20260904141048 | 68 | 0 | 1.0 | 7.0 | 0.00 | 0.00 | 0.00 | 32 | 1024.1 |
| 20260904140545 | 68 | 269 | 1.0 | 7.0 | 0.00 | 0.00 | 0.00 | 32 | 1024.0 |
| 20260904140106 | 67 | 0 | 0.0 | 3.0 | 0.00 | 0.00 | 0.00 | 33 | 1023.9 |
| 20260904135545 | 67 | 0 | 0.0 | 4.0 | 0.00 | 0.00 | 0.00 | 33 | 1023.8 |
| 20260904135045 | 66 | 0 | 0.0 | 4.0 | 0.00 | 0.00 | 0.00 | 34 | 1023.8 |
| 20260904134605 | 66 | 0 | 0.0 | 4.0 | 0.00 | 0.00 | 0.00 | 34 | 1023.7 |
| 20260904134048 | 65 | 0 | 0.0 | 4.0 | 0.00 | 0.00 | 0.00 | 34 | 1023.6 |
| 20260904133545 | 65 | 0 | 0.0 | 4.0 | 0.00 | 0.00 | 0.00 | 34 | 1023.5 |
| 20260904133100 | 64 | 0 | 0.0 | 7.0 | 0.00 | 0.00 | 0.00 | 35 | 1023.3 |
| 20260904132548 | 63 | 0 | 0.0 | 7.0 | 0.00 | 0.00 | 0.00 | 35 | 1023.2 |
| 20260904132050 | 63 | 0 | 0.0 | 6.0 | 0.00 | 0.00 | 0.00 | 36 | 1023.2 |
| 20260904131626 | 62 | 0 | 0.0 | 6.0 | 0.00 | 0.00 | 0.00 | 37 | 1023.1 |
| 20260904131050 | 61 | 0 | 0.0 | 3.0 | 0.00 | 0.00 | 0.00 | 38 | 1022.9 |
| 20260904130545 | 61 | 0 | 0.0 | 3.0 | 0.00 | 0.00 | 0.00 | 37 | 1022.9 |
| 20260904130051 | 61 | 0 | 0.0 | 3.0 | 0.00 | 0.00 | 0.00 | 38 | 1022.9 |
| 20260904125544 | 60 | 300 | 0.0 | 3.0 | 0.00 | 0.00 | 0.00 | 37 | 1022.9 |
| 20260904125044 | 60 | 0 | 0.0 | 3.0 | 0.00 | 0.00 | 0.00 | 38 | 1022.7 |
| 20260904124557 | 60 | 0 | 0.0 | 2.0 | 0.00 | 0.00 | 0.00 | 38 | 1022.7 |
| 20260904124043 | 60 | 0 | 0.0 | 3.0 | 0.00 | 0.00 | 0.00 | 38 | 1022.7 |
| 20260904123544 | 60 | 0 | 0.0 | 4.0 | 0.00 | 0.00 | 0.00 | 38 | 1022.7 |
| 20260904123106 | 60 | 0 | 0.0 | 4.0 | 0.00 | 0.00 | 0.00 | 38 | 1022.7 |
| 20260904122543 | 60 | 0 | 0.0 | 2.0 | 0.00 | 0.00 | 0.00 | 37 | 1022.7 |
| 20260904122043 | 60 | 0 | 0.0 | 1.0 | 0.00 | 0.00 | 0.00 | 37 | 1022.6 |
| 20260904121559 | 60 | 0 | 0.0 | 5.0 | 0.00 | 0.00 | 0.00 | 37 | 1022.6 |
| 20260904121044 | 60 | 0 | 0.0 | 5.0 | 0.00 | 0.00 | 0.00 | 38 | 1022.5 |
| 20260904120543 | 60 | 0 | 0.0 | 0.0 | 0.00 | 0.00 | 0.00 | 38 | 1022.5 |
| 20260904120106 | 60 | 0 | 0.0 | 0.0 | 0.00 | 0.00 | 0.00 | 38 | 1022.5 |
| 20260904115544 | 60 | 0 | 0.0 | 2.0 | 0.00 | 0.00 | 0.00 | 37 | 1022.4 |
| 20260904115044 | 60 | 0 | 0.0 | 5.0 | 0.00 | 0.00 | 0.00 | 37 | 1022.4 |
| 20260904114556 | 60 | 0 | 0.0 | 5.0 | 0.00 | 0.00 | 0.00 | 37 | 1022.4 |
| 20260904114044 | 60 | 0 | 0.0 | 5.0 | 0.00 | 0.00 | 0.00 | 38 | 1022.4 |
| 20260904113544 | 60 | 0 | 0.0 | 2.0 | 0.00 | 0.00 | 0.00 | 38 | 1022.4 |
| 20260904113057 | 60 | 0 | 0.0 | 2.0 | 0.00 | 0.00 | 0.00 | 38 | 1022.4 |
| 20260904112543 | 60 | 0 | 0.0 | 2.0 | 0.00 | 0.00 | 0.00 | 37 | 1022.4 |
| 20260904112043 | 60 | 0 | 0.0 | 2.0 | 0.00 | 0.00 | 0.00 | 37 | 1022.3 |
| 20260904111610 | 60 | 0 | 0.0 | 5.0 | 0.00 | 0.00 | 0.00 | 37 | 1022.4 |
| 20260904111043 | 60 | 0 | 0.0 | 5.0 | 0.00 | 0.00 | 0.00 | 37 | 1022.3 |
| 20260904110542 | 60 | 0 | 0.0 | 2.0 | 0.00 | 0.00 | 0.00 | 37 | 1022.4 |
| 20260904110106 | 60 | 0 | 0.0 | 2.0 | 0.00 | 0.00 | 0.00 | 37 | 1022.3 |
| 20260904105543 | 60 | 0 | 0.0 | 0.0 | 0.00 | 0.00 | 0.00 | 37 | 1022.3 |
| 20260904105044 | 61 | 0 | 0.0 | 4.0 | 0.00 | 0.00 | 0.00 | 36 | 1022.3 |